Upstream stations:
Downstream station:
SHEF ID: CASK1 NF NINNESCAH R AB CHENEY RE, KS
STATION TYPE:
PRECIP STAGE RIV-FLOW DIS-OXY PH CONDUCT AIR-TEMP BAT-LOAD
in ft cfs mg/l su umho/cm F volt
Ccp-Rev Ccp-Rev Ccp-Rev Ccp-Rev Ccp-Rev Ccp-Rev Ccp-Rev Ccp-Rev
(US/Central)
09/04 00:00 0.00 5.92 37 ---- ---- ---- ---- 12.65
09/04 01:00 0.19 5.96 41 ---- ---- ---- ---- 12.57
09/04 02:00 0.00 5.95 40 ---- ---- ---- ---- 12.57
09/04 03:00 0.00 5.94 39 ---- ---- ---- ---- 12.57
09/04 04:00 0.07 5.95 40 ---- ---- ---- ---- 12.49
09/04 05:00 0.00 5.94 39 ---- ---- ---- ---- 12.49
09/04 06:00 0.08 5.95 40 ---- ---- ---- ---- 12.49
09/04 07:00 0.09 5.96 41 ---- ---- ---- ---- 12.49
09/04 08:00 0.02 5.96 41 ---- ---- ---- ---- 12.41
09/04 09:00 0.00 5.95 40 ---- ---- ---- ---- 12.49
09/04 10:00 0.00 5.95 40 ---- ---- ---- ---- 13.29
09/04 11:00 0.00 5.95 40 ---- ---- ---- ---- 13.21
09/04 12:00 0.00 5.95 40 ---- ---- ---- ---- 13.44
09/04 13:00 0.00 5.95 40 ---- ---- ---- ---- 13.68
09/04 14:00 0.00 5.95 40 ---- ---- ---- ---- 13.60
09/04 15:00 0.00 5.95 40 ---- ---- ---- ---- 13.68
09/04 16:00 0.00 5.96 41 ---- ---- ---- ---- 13.60
09/04 17:00 0.00 5.96 41 ---- ---- ---- ---- 13.53
09/04 18:00 0.00 5.96 41 ---- ---- ---- ---- 13.37
09/04 19:00 0.00 5.95 40 ---- ---- ---- ---- 13.29
09/04 20:00 0.00 5.95 40 ---- ---- ---- ---- 12.89
09/04 21:00 0.00 5.95 40 ---- ---- ---- ---- 12.73
09/04 22:00 0.00 5.95 40 ---- ---- ---- ---- 12.65
09/04 23:00 0.00 5.95 40 ---- ---- ---- ---- 12.65